Regional Weather Roundup
Issued by NWS

Home | Current Version | Previous Version | Graphics & Text | Print | Product List | Glossary On
Versions: 1 2 3 4 5 6 7 8 9 10 11 12 13 14 15 16 17 18 19 20 21 22 23 24 25 26 27 28 29 30 31 32 33 34 35 36 37 38 39 40 41 42 43 44 45 46 47 48 49 50
000
ASUS43 KTOP 290708
RWRKS

WEATHER ROUNDUP FOR KANSAS
NATIONAL WEATHER SERVICE GOODLAND KS
200 AM CDT SAT APR 29 2017

NOTE:  "FAIR" INDICATES FEW OR NO CLOUDS BELOW 12,000 FEET WITH NO
SIGNIFICANT WEATHER AND/OR OBSTRUCTIONS TO VISIBILITY.

KSZ001>006-013>018-027>032-041>047-290800-
NORTHWEST KANSAS

CITY           SKY/WX    TMP DP  RH WIND       PRES   REMARKS
GOODLAND       CLOUDY    33  33 100 NE16      30.02R WCI  23
HAYS           LGT RAIN  39  37  92 N22G28    29.94F WCI  29
HILL CITY      CLOUDY    39  37  92 NE14      30.02S WCI  31
RUSSELL        HVY RAIN  39  38  96 N17       29.93S FOG     WCI  30
$$

KSZ061>065-074>080-084>089-290800-
SOUTHWEST KANSAS

CITY           SKY/WX    TMP DP  RH WIND       PRES   REMARKS
DODGE CITY     RAIN      39  37  92 N21       29.87S FOG     WCI  29
ELKHART          N/A     36  30  79 N15         N/A  WCI  27
GARDEN CITY    RAIN      36  34  92 N25G32    29.91S FOG     WCI  24
GREAT BEND     RAIN      40  38  93 N22G30    29.88F WCI  30
LIBERAL        RAIN      40  39  97 N14       29.89R FOG     WCI  32
PRATT          CLOUDY    38  37  94 N20G32    29.84R WCI  28
$$

KSZ066>073-081>083-090>101-290800-
SOUTHEAST KANSAS

CITY           SKY/WX    TMP DP  RH WIND       PRES   REMARKS
CHANUTE        CLOUDY    51  50  96 NE16G25   29.83R FOG
COFFEYVILLE    CLOUDY    60  57  89 NE15G22   29.75R
HUTCHINSON     LGT RAIN  43  40  89 N20G25    29.85R
MEDICINE LODGE   N/A     43  40  89 N16G29    29.80R
NEWTON         CLOUDY    43  42  97 N23G29    29.83R
PARSONS        LGT RAIN  56  54  93 N12       29.77S
WICHITA INTL   CLOUDY    46  43  89 N20       29.82R
WICHITA JABRA  CLOUDY    44  43  96 N24G30    29.80R
WICHITA MCCONL CLOUDY    46  42  87 NE21      29.81R
WINFIELD       CLOUDY    53  47  79 NE16G23   29.75R
$$

KSZ007>012-019>026-033>040-048>060-102>105-290800-
NORTHEAST KANSAS

CITY           SKY/WX    TMP DP  RH WIND       PRES   REMARKS
CONCORDIA      CLOUDY    40  40 100 N18G25    29.93F WCI  31
EMPORIA        CLOUDY    44  44 100 N17G24    29.83F
LAWRENCE       CLOUDY    45  45 100 N9G21     29.91S FOG
MANHATTAN      CLOUDY    44  41  89 NE16G22   29.89F
MARYSVILLE     CLOUDY    41  41 100 N18       29.94F FOG
OLATHE IND     FOG       44  44 100 N12       29.90R VSB 1
OLATHE EXE     CLOUDY    44  44 100 N13       29.88R FOG
SALINA         CLOUDY    44  39  82 N21       29.92S
TOPEKA BILLARD CLOUDY    45  44  97 N13       29.89F
TOPEKA FORBES  CLOUDY    45  44  97 N14G26    29.87F FOG
$$




USA.gov is the U.S. government's official web portal to all federal, state and local government web resources and services.